Location: Unspecified
(0.0000°N, 0.0000°E)
Time: 16:36:55
(UTC+01:00)

Envisat - Pass Details

Date: 25 October 2021
Orbit: 764 x 766 km, 98.2° (Epoch: 29 November)

Event Time Altitude Azimuth Distance (km) Brightness Sun altitude
Rises 05:54:05 0° 36° (NE) 3,214 6.5 -26.8°
Reaches altitude 10° 05:56:48 10° 50° (NE) 2,291 5.9 -26.2°
Maximum altitude 06:00:45 23° 102° (ESE) 1,567 5.3 -25.2°
Drops below altitude 10° 06:04:43 10° 154° (SSE) 2,298 5.9 -24.3°
Sets 06:07:26 0° 168° (SSE) 3,227 6.6 -23.6°
